Location: Stuttgart
(48.7824°N, 9.1964°E)
Time: 06:16:41
(UTC+01:00)

ISS - Pass Details

Date: 28 January 2019
Orbit: 403 x 411 km, 51.6° (Epoch: 17 February)

Event Time Altitude Azimuth Distance (km) Brightness Sun altitude
Rises 19:06:02 0° 262° (W) 2,333 1.8 -18.4°
Reaches altitude 10° 19:08:08 10° 266° (W) 1,474 0.3 -18.7°
Maximum altitude 19:11:25 60° 347° (NNW) 475 -3.6 -19.3°
Enters shadow 19:11:38 58° 10° (N) 485 -3.6 -19.3°
